CZ-2D DEB

Satellite information

Favourite Embed

Satellite Type and Status

DEBRISIN ORBIT

Key statistics

Satellite CZ-2D DEB at a glance.

Uptime

6028

Days in orbit

Revolutions

≈ 14.1

Per day

Orbit

SSO

Sun Synchronous Orbit

Inclination

98.4

Latest

Satellite identification and parameters

Extended collection of information and parameters for CZ-2D DEB.

Object identification

Identified? True

Debris? True

Object name: CZ-2D DEB

International designator: 2008-056G

Object number (NORAD): 36291

Object ID (CCSDS): 36291

Country: PEOPLES REPUBLIC OF CHINA (PRC)

Current information (Y/N): Y

RCS size: SMALL

Orbital parameters

Period: 102.414 minutes

Inclination: 98.4483 deg

SMA: 7251.021 km

Apoapsis: 996.897 km

Periapsis: 748.874 km

RAAN: 175.3105 deg

Eccentricy: 0.0171026

Argument of periapsis: 157.3162 deg

Mean anomaly: 203.5682 deg

Mean motion: 14.06060666 rev/day

Mean motion (dot): 0.00001079 rev/day2

B* drag term: 0.00059689 1/REarth

Two-line elements (TLE)

Creation date: May 6, 2025, 3:54 a.m.

Reference frame: TEME

Reference center: EARTH

Epoch: May 5, 2025, 9:39 a.m. UTC

TLE line 0: 0 CZ-2D DEB

TLE line 1: 1 36291U 08056G 25125.40216148 .00001079 00000-0 59689-3 0 9998

TLE line 2: 2 36291 98.4483 175.3105 0171026 157.3162 203.5682 14.06060666839026

Live tracking on map

Real-time ground track for satellite CZ-2D DEB.

In-orbit conjunctions

A list of the most updated potential collisions computed for object CZ-2D DEB.

Target Orbit TCA Probability of collision Miss distance Type
NOAA 16 DEB SSO 2024-11-11 01:56:57 0.0002376409 385.0 (m) DEBRIS

Associated space launch

Chinese experimental Earth observation satellite

CZ-2D DEB was lifted into orbit during the mission ‘Long March 2D | Shiyan Weixing 3’, on board a Long March 2D space rocket.

The launch took place on Nov. 5, 2008, 12:15 a.m. from Launch Area 4 (SLS-2 / 603).

For more information about the launch, click the button.

Launch to space Long March 2D | Shiyan Weixing 3
Long March 2D | Shiyan Weixing 3

Agency: N/A

Status: Launch Successful

Launch date: Nov. 5, 2008, 12:15 a.m. UTC

Rocket: Long March 2D

Launch pad: Launch Area 4 (SLS-2 / 603)

Location: Jiuquan Satellite Launch Center, People's Republic of China

...

Latest news about this satellite

There are no fresh news available about this satellite. Check back as we update our databases every day.


Newsletter sign-up

Weekly statistics, charts and insights to help you stay on top of the space industry.